| time (UTC) | temp F | wind direction | speed knots | gust knots | rain 1hr in | rain 24hr in | rain mn in | humidity % | barometer mb |
| 20260831172521 | 73 | 0 | 0.0 | 3.5 | 0.00 | 0.00 | 0.00 | 93 | 1012.8 |
| 20260831172020 | 73 | 219 | 0.9 | 4.3 | 0.00 | 0.00 | 0.00 | 93 | 1012.8 |
| 20260831171534 | 73 | 219 | 0.9 | 4.3 | 0.00 | 0.00 | 0.00 | 93 | 1012.8 |
| 20260831171019 | 73 | 167 | 1.7 | 4.3 | 0.00 | 0.00 | 0.00 | 93 | 1012.7 |
| 20260831170521 | 73 | 167 | 0.0 | 3.5 | 0.00 | 0.00 | 0.00 | 94 | 1012.7 |
| 20260831170039 | 73 | 0 | 0.9 | 3.5 | 0.00 | 0.00 | 0.00 | 94 | 1012.6 |
| 20260831165515 | 73 | 167 | 0.0 | 3.5 | 0.00 | 0.00 | 0.00 | 95 | 1012.6 |
| 20260831165019 | 72 | 167 | 0.0 | 4.3 | 0.00 | 0.00 | 0.00 | 94 | 1012.6 |
| 20260831164536 | 72 | 167 | 1.7 | 4.3 | 0.00 | 0.00 | 0.00 | 95 | 1012.6 |
| 20260831164020 | 72 | 167 | 0.0 | 3.5 | 0.00 | 0.00 | 0.00 | 95 | 1012.6 |
| 20260831163521 | 72 | 0 | 0.0 | 3.5 | 0.00 | 0.00 | 0.00 | 95 | 1012.6 |
| 20260831163035 | 72 | 0 | 1.7 | 3.5 | 0.00 | 0.00 | 0.00 | 95 | 1012.5 |
| 20260831162520 | 72 | 167 | 0.9 | 3.5 | 0.00 | 0.00 | 0.00 | 95 | 1012.5 |
| 20260831162019 | 72 | 0 | 0.0 | 2.6 | 0.00 | 0.00 | 0.00 | 95 | 1012.5 |
| 20260831161537 | 72 | 0 | 0.0 | 3.5 | 0.00 | 0.00 | 0.00 | 95 | 1012.4 |
| 20260831161018 | 72 | 0 | 0.9 | 3.5 | 0.00 | 0.00 | 0.00 | 95 | 1012.3 |
| 20260831160518 | 72 | 167 | 0.0 | 3.5 | 0.00 | 0.00 | 0.00 | 95 | 1012.3 |
| 20260831160050 | 72 | 167 | 0.0 | 3.5 | 0.00 | 0.00 | 0.00 | 95 | 1012.1 |
| 20260831155520 | 72 | 167 | 0.9 | 3.5 | 0.00 | 0.00 | 0.00 | 95 | 1012.2 |
| 20260831155023 | 72 | 0 | 0.0 | 2.6 | 0.00 | 0.00 | 0.00 | 95 | 1012.2 |
| 20260831154600 | 72 | 167 | 0.0 | 4.3 | 0.00 | 0.00 | 0.00 | 95 | 1012.3 |
| 20260831154021 | 72 | 167 | 0.9 | 4.3 | 0.00 | 0.00 | 0.00 | 95 | 1012.1 |
| 20260831153520 | 72 | 167 | 2.6 | 4.3 | 0.00 | 0.00 | 0.00 | 95 | 1012.0 |
| 20260831153034 | 72 | 167 | 0.9 | 5.2 | 0.00 | 0.00 | 0.00 | 95 | 1011.9 |
| 20260831152524 | 71 | 0 | 1.7 | 5.2 | 0.00 | 0.00 | 0.00 | 95 | 1011.8 |
| 20260831152019 | 71 | 180 | 1.7 | 5.2 | 0.00 | 0.00 | 0.00 | 95 | 1011.8 |
| 20260831151537 | 71 | 164 | 1.7 | 4.3 | 0.00 | 0.00 | 0.00 | 95 | 1011.8 |
| 20260831151016 | 71 | 164 | 0.9 | 5.2 | 0.00 | 0.00 | 0.00 | 95 | 1011.7 |
| 20260831150521 | 71 | 164 | 3.5 | 5.2 | 0.00 | 0.00 | 0.00 | 95 | 1011.7 |
| 20260831150035 | 71 | 164 | 1.7 | 5.2 | 0.00 | 0.00 | 0.00 | 95 | 1011.5 |
| 20260831145521 | 71 | 183 | 2.6 | 7.0 | 0.00 | 0.00 | 0.00 | 95 | 1011.5 |
| 20260831145023 | 71 | 184 | 2.6 | 7.0 | 0.00 | 0.00 | 0.00 | 95 | 1011.4 |
| 20260831144534 | 71 | 168 | 2.6 | 5.2 | 0.00 | 0.00 | 0.00 | 95 | 1011.4 |
| 20260831144019 | 71 | 165 | 2.6 | 4.3 | 0.00 | 0.00 | 0.00 | 95 | 1011.3 |
| 20260831143521 | 71 | 167 | 2.6 | 6.1 | 0.00 | 0.00 | 0.00 | 95 | 1011.5 |
| 20260831143040 | 71 | 167 | 2.6 | 6.1 | 0.00 | 0.00 | 0.00 | 95 | 1011.5 |
| 20260831142516 | 71 | 176 | 2.6 | 6.1 | 0.00 | 0.00 | 0.00 | 95 | 1011.6 |
| 20260831142024 | 70 | 161 | 3.5 | 6.1 | 0.00 | 0.00 | 0.00 | 95 | 1011.6 |
| 20260831141538 | 70 | 158 | 1.7 | 7.0 | 0.00 | 0.00 | 0.00 | 95 | 1011.6 |
| 20260831141019 | 70 | 189 | 3.5 | 7.0 | 0.00 | 0.00 | 0.00 | 95 | 1011.6 |
| 20260831140522 | 70 | 172 | 2.6 | 6.1 | 0.00 | 0.00 | 0.00 | 95 | 1011.6 |
| 20260831140040 | 70 | 173 | 2.6 | 5.2 | 0.00 | 0.00 | 0.00 | 95 | 1011.5 |
| 20260831135520 | 70 | 173 | 1.7 | 6.1 | 0.00 | 0.00 | 0.00 | 95 | 1011.3 |
| 20260831135018 | 70 | 173 | 2.6 | 6.1 | 0.00 | 0.00 | 0.00 | 95 | 1011.2 |
| 20260831134535 | 70 | 173 | 0.9 | 6.1 | 0.00 | 0.00 | 0.00 | 95 | 1011.3 |
| 20260831134019 | 70 | 173 | 3.5 | 6.1 | 0.00 | 0.00 | 0.00 | 95 | 1011.3 |
| 20260831133522 | 70 | 173 | 1.7 | 5.2 | 0.00 | 0.00 | 0.00 | 95 | 1011.3 |
| 20260831133034 | 70 | 173 | 1.7 | 6.1 | 0.00 | 0.00 | 0.00 | 95 | 1011.3 |
| 20260831132521 | 70 | 179 | 1.7 | 6.1 | 0.00 | 0.00 | 0.00 | 95 | 1011.4 |
| 20260831132020 | 70 | 173 | 2.6 | 6.1 | 0.00 | 0.00 | 0.00 | 95 | 1011.4 |
| 20260831131533 | 70 | 186 | 2.6 | 6.1 | 0.00 | 0.00 | 0.00 | 95 | 1011.4 |
| 20260831131025 | 70 | 175 | 2.6 | 6.1 | 0.00 | 0.00 | 0.00 | 95 | 1011.2 |
| 20260831130519 | 70 | 158 | 2.6 | 6.1 | 0.00 | 0.00 | 0.00 | 95 | 1011.1 |
| 20260831130037 | 70 | 155 | 2.6 | 6.1 | 0.00 | 0.00 | 0.00 | 96 | 1011.1 |
| 20260831125516 | 69 | 150 | 3.5 | 7.0 | 0.00 | 0.00 | 0.00 | 96 | 1011.0 |
| 20260831125019 | 69 | 159 | 4.3 | 8.7 | 0.00 | 0.00 | 0.00 | 96 | 1010.9 |
| 20260831124533 | 69 | 121 | 3.5 | 8.7 | 0.00 | 0.00 | 0.00 | 96 | 1010.9 |
| 20260831124020 | 69 | 158 | 5.2 | 8.7 | 0.00 | 0.00 | 0.00 | 95 | 1011.1 |
| 20260831123521 | 69 | 148 | 4.3 | 7.0 | 0.00 | 0.00 | 0.00 | 95 | 1011.0 |
| 20260831123033 | 70 | 148 | 2.6 | 6.1 | 0.00 | 0.00 | 0.00 | 95 | 1011.1 |
| 20260831122524 | 70 | 126 | 1.7 | 6.1 | 0.00 | 0.00 | 0.00 | 95 | 1011.1 |
| 20260831122019 | 70 | 152 | 2.6 | 7.0 | 0.00 | 0.00 | 0.00 | 95 | 1011.3 |
| 20260831121533 | 70 | 131 | 2.6 | 7.0 | 0.00 | 0.00 | 0.00 | 95 | 1011.3 |
| 20260831121019 | 70 | 128 | 3.5 | 7.0 | 0.00 | 0.00 | 0.00 | 95 | 1011.2 |
| 20260831120521 | 70 | 146 | 3.5 | 7.0 | 0.00 | 0.00 | 0.00 | 96 | 1011.2 |
| 20260831120035 | 70 | 151 | 2.6 | 7.0 | 0.00 | 0.00 | 0.00 | 96 | 1011.2 |
| 20260831115515 | 70 | 148 | 2.6 | 6.1 | 0.00 | 0.00 | 0.00 | 96 | 1011.2 |
| 20260831115015 | 70 | 154 | 3.5 | 6.1 | 0.00 | 0.00 | 0.00 | 95 | 1011.1 |
| 20260831114546 | 70 | 165 | 2.6 | 7.0 | 0.00 | 0.00 | 0.00 | 95 | 1011.1 |
| 20260831114021 | 70 | 138 | 1.7 | 7.0 | 0.00 | 0.00 | 0.00 | 95 | 1011.0 |
| 20260831113521 | 70 | 146 | 3.5 | 7.0 | 0.00 | 0.00 | 0.00 | 95 | 1010.8 |
| 20260831113037 | 70 | 141 | 3.5 | 7.8 | 0.00 | 0.00 | 0.00 | 95 | 1010.8 |
| 20260831112520 | 70 | 161 | 2.6 | 7.8 | 0.00 | 0.00 | 0.00 | 95 | 1011.1 |
| 20260831112019 | 70 | 153 | 5.2 | 7.8 | 0.00 | 0.00 | 0.00 | 95 | 1010.9 |
| 20260831111538 | 70 | 145 | 4.3 | 7.0 | 0.00 | 0.00 | 0.00 | 95 | 1010.8 |
| 20260831111022 | 70 | 135 | 4.3 | 7.0 | 0.00 | 0.00 | 0.00 | 95 | 1010.8 |
| 20260831110520 | 70 | 127 | 3.5 | 7.0 | 0.00 | 0.00 | 0.00 | 95 | 1011.1 |
| 20260831110040 | 70 | 158 | 4.3 | 7.0 | 0.00 | 0.00 | 0.00 | 95 | 1011.0 |
| 20260831105518 | 70 | 186 | 3.5 | 7.0 | 0.00 | 0.00 | 0.00 | 95 | 1010.9 |
| 20260831105022 | 70 | 146 | 3.5 | 7.0 | 0.00 | 0.00 | 0.00 | 95 | 1010.8 |
| 20260831104539 | 70 | 160 | 3.5 | 7.8 | 0.00 | 0.00 | 0.00 | 95 | 1010.9 |
| 20260831104022 | 70 | 167 | 2.6 | 7.8 | 0.00 | 0.00 | 0.00 | 95 | 1010.9 |
| 20260831103521 | 70 | 139 | 2.6 | 6.1 | 0.00 | 0.00 | 0.00 | 95 | 1011.1 |
| 20260831103039 | 70 | 157 | 2.6 | 7.0 | 0.00 | 0.00 | 0.00 | 95 | 1011.1 |
| 20260831102519 | 70 | 153 | 2.6 | 7.8 | 0.00 | 0.00 | 0.00 | 95 | 1011.0 |
| 20260831102022 | 70 | 151 | 3.5 | 9.6 | 0.00 | 0.00 | 0.00 | 95 | 1011.0 |
| 20260831101544 | 70 | 149 | 4.3 | 9.6 | 0.00 | 0.00 | 0.00 | 95 | 1010.9 |
| 20260831101019 | 70 | 132 | 3.5 | 7.8 | 0.00 | 0.00 | 0.00 | 95 | 1010.9 |
| 20260831100516 | 70 | 143 | 3.5 | 7.8 | 0.00 | 0.00 | 0.00 | 95 | 1011.1 |
| 20260831100036 | 70 | 143 | 4.3 | 7.8 | 0.00 | 0.00 | 0.00 | 95 | 1011.1 |
| 20260831095520 | 70 | 137 | 5.2 | 8.7 | 0.00 | 0.00 | 0.00 | 95 | 1011.1 |
| 20260831095025 | 70 | 144 | 4.3 | 8.7 | 0.00 | 0.00 | 0.00 | 95 | 1011.0 |
| 20260831094540 | 70 | 156 | 5.2 | 8.7 | 0.00 | 0.00 | 0.00 | 95 | 1011.1 |
| 20260831094022 | 70 | 148 | 5.2 | 8.7 | 0.00 | 0.00 | 0.00 | 95 | 1011.2 |
| 20260831093523 | 70 | 119 | 3.5 | 10.4 | 0.00 | 0.00 | 0.00 | 95 | 1011.1 |
| 20260831093038 | 70 | 144 | 5.2 | 10.4 | 0.00 | 0.00 | 0.00 | 94 | 1011.2 |
| 20260831092519 | 70 | 152 | 5.2 | 10.4 | 0.00 | 0.00 | 0.00 | 95 | 1011.2 |
| 20260831092018 | 70 | 161 | 4.3 | 10.4 | 0.00 | 0.00 | 0.00 | 95 | 1011.1 |
| 20260831091545 | 70 | 138 | 5.2 | 10.4 | 0.00 | 0.00 | 0.00 | 94 | 1011.2 |
| 20260831091019 | 70 | 161 | 4.3 | 7.8 | 0.00 | 0.00 | 0.00 | 94 | 1011.2 |
| 20260831090518 | 70 | 155 | 3.5 | 8.7 | 0.00 | 0.00 | 0.00 | 95 | 1011.4 |
| 20260831090036 | 70 | 133 | 3.5 | 8.7 | 0.00 | 0.00 | 0.00 | 94 | 1011.3 |
| 20260831085522 | 70 | 96 | 3.5 | 8.7 | 0.00 | 0.00 | 0.00 | 94 | 1011.2 |
| 20260831085020 | 71 | 135 | 4.3 | 10.4 | 0.00 | 0.00 | 0.00 | 94 | 1011.2 |
| 20260831084536 | 70 | 142 | 5.2 | 10.4 | 0.00 | 0.00 | 0.00 | 95 | 1011.2 |
| 20260831084021 | 70 | 155 | 3.5 | 7.8 | 0.00 | 0.00 | 0.00 | 95 | 1011.2 |
| 20260831083519 | 70 | 148 | 2.6 | 7.8 | 0.00 | 0.00 | 0.00 | 95 | 1011.1 |
| 20260831083035 | 70 | 159 | 3.5 | 7.8 | 0.00 | 0.00 | 0.00 | 96 | 1011.2 |
| 20260831082516 | 70 | 130 | 2.6 | 7.8 | 0.00 | 0.00 | 0.00 | 96 | 1011.1 |
| 20260831082019 | 70 | 137 | 3.5 | 7.8 | 0.00 | 0.00 | 0.00 | 96 | 1011.2 |
| 20260831081538 | 70 | 156 | 3.5 | 7.0 | 0.00 | 0.00 | 0.00 | 96 | 1011.1 |
| 20260831081018 | 70 | 128 | 3.5 | 7.0 | 0.00 | 0.00 | 0.00 | 96 | 1011.1 |
| 20260831080523 | 70 | 155 | 1.7 | 7.0 | 0.00 | 0.00 | 0.00 | 96 | 1011.2 |
| 20260831080036 | 70 | 140 | 1.7 | 7.0 | 0.00 | 0.00 | 0.00 | 96 | 1011.2 |
| 20260831075519 | 70 | 154 | 2.6 | 6.1 | 0.00 | 0.00 | 0.00 | 96 | 1011.2 |
| 20260831075020 | 70 | 130 | 1.7 | 6.1 | 0.00 | 0.00 | 0.00 | 96 | 1011.4 |
| 20260831074534 | 70 | 148 | 2.6 | 6.1 | 0.00 | 0.00 | 0.00 | 96 | 1011.5 |
| 20260831074020 | 70 | 148 | 2.6 | 6.1 | 0.00 | 0.00 | 0.00 | 96 | 1011.5 |
| 20260831073518 | 70 | 125 | 2.6 | 6.1 | 0.00 | 0.00 | 0.00 | 96 | 1011.5 |
| 20260831073035 | 70 | 154 | 2.6 | 6.1 | 0.00 | 0.00 | 0.00 | 96 | 1011.6 |
| 20260831072516 | 70 | 132 | 3.5 | 6.1 | 0.00 | 0.00 | 0.00 | 96 | 1011.6 |
| 20260831072018 | 70 | 147 | 2.6 | 6.1 | 0.00 | 0.00 | 0.00 | 97 | 1011.9 |
| 20260831071539 | 70 | 137 | 1.7 | 6.1 | 0.00 | 0.00 | 0.00 | 97 | 1011.8 |
| 20260831071021 | 70 | 132 | 2.6 | 6.1 | 0.00 | 0.00 | 0.00 | 97 | 1011.8 |
| 20260831070521 | 70 | 119 | 1.7 | 6.1 | 0.00 | 0.00 | 0.00 | 97 | 1011.9 |
| 20260831070040 | 70 | 82 | 1.7 | 6.1 | 0.00 | 0.00 | 0.00 | 97 | 1012.0 |
| 20260831065520 | 70 | 141 | 2.6 | 6.1 | 0.00 | 0.00 | 0.00 | 97 | 1012.2 |
| 20260831065022 | 70 | 157 | 0.9 | 5.2 | 0.00 | 0.00 | 0.00 | 97 | 1012.2 |
| 20260831064536 | 70 | 155 | 0.9 | 5.2 | 0.00 | 0.00 | 0.00 | 97 | 1012.2 |
| 20260831064018 | 70 | 155 | 1.7 | 5.2 | 0.00 | 0.00 | 0.00 | 97 | 1012.3 |
| 20260831063519 | 70 | 155 | 1.7 | 5.2 | 0.00 | 0.00 | 0.00 | 97 | 1012.4 |
| 20260831063037 | 70 | 157 | 1.7 | 6.1 | 0.00 | 0.00 | 0.00 | 97 | 1012.4 |
| 20260831062518 | 70 | 157 | 3.5 | 6.1 | 0.00 | 0.00 | 0.00 | 97 | 1012.4 |
| 20260831062023 | 69 | 136 | 2.6 | 5.2 | 0.00 | 0.00 | 0.00 | 97 | 1012.4 |
| 20260831061536 | 69 | 179 | 1.7 | 4.3 | 0.00 | 0.00 | 0.00 | 97 | 1012.4 |
| 20260831061021 | 69 | 136 | 0.9 | 5.2 | 0.00 | 0.00 | 0.00 | 97 | 1012.5 |
| 20260831060523 | 69 | 0 | 0.9 | 6.1 | 0.00 | 0.00 | 0.00 | 97 | 1012.5 |
| 20260831060036 | 69 | 144 | 1.7 | 7.0 | 0.00 | 0.00 | 0.00 | 97 | 1012.6 |
| 20260831055523 | 69 | 131 | 2.6 | 7.0 | 0.00 | 0.00 | 0.00 | 97 | 1012.5 |
| 20260831055024 | 69 | 159 | 3.5 | 7.0 | 0.00 | 0.00 | 0.00 | 97 | 1012.5 |
| 20260831054538 | 69 | 140 | 3.5 | 6.1 | 0.00 | 0.00 | 0.00 | 97 | 1012.7 |
| 20260831054021 | 69 | 137 | 2.6 | 6.1 | 0.00 | 0.00 | 0.00 | 96 | 1012.8 |
| 20260831053518 | 69 | 144 | 2.6 | 6.1 | 0.00 | 0.00 | 0.00 | 96 | 1013.0 |
| 20260831053036 | 69 | 144 | 0.9 | 6.1 | 0.00 | 0.00 | 0.00 | 96 | 1013.1 |
| 20260831052517 | 69 | 148 | 1.7 | 6.1 | 0.00 | 0.00 | 0.00 | 96 | 1013.1 |
| 20260831052019 | 69 | 121 | 1.7 | 7.0 | 0.00 | 0.00 | 0.00 | 96 | 1013.2 |
| 20260831051542 | 69 | 0 | 2.6 | 7.0 | 0.00 | 0.00 | 0.00 | 96 | 1013.1 |
| 20260831051018 | 69 | 130 | 1.7 | 7.8 | 0.00 | 0.00 | 0.00 | 96 | 1013.1 |
| 20260831050518 | 69 | 150 | 2.6 | 7.8 | 0.00 | 0.00 | 0.00 | 96 | 1013.2 |
| 20260831050037 | 69 | 135 | 4.3 | 11.3 | 0.00 | 0.00 | 0.00 | 96 | 1013.3 |
| 20260831045519 | 69 | 126 | 3.5 | 11.3 | 0.00 | 0.00 | 0.00 | 96 | 1013.3 |
| 20260831045016 | 69 | 119 | 6.1 | 11.3 | 0.00 | 0.00 | 0.00 | 96 | 1013.1 |
| 20260831044537 | 69 | 139 | 3.5 | 7.0 | 0.00 | 0.00 | 0.00 | 96 | 1013.1 |
| 20260831044017 | 69 | 157 | 3.5 | 7.0 | 0.00 | 0.00 | 0.00 | 96 | 1013.2 |
| 20260831043524 | 69 | 140 | 2.6 | 7.0 | 0.00 | 0.00 | 0.00 | 96 | 1013.1 |
| 20260831043034 | 69 | 0 | 0.0 | 4.3 | 0.00 | 0.00 | 0.00 | 96 | 1013.2 |
| 20260831042521 | 69 | 150 | 1.7 | 5.2 | 0.00 | 0.00 | 0.00 | 96 | 1013.2 |
| 20260831042019 | 69 | 150 | 1.7 | 5.2 | 0.00 | 0.00 | 0.00 | 96 | 1012.9 |
| 20260831041549 | 69 | 150 | 1.7 | 6.1 | 0.00 | 0.00 | 0.00 | 96 | 1013.0 |
| 20260831041016 | 69 | 150 | 2.6 | 6.1 | 0.00 | 0.00 | 0.00 | 96 | 1013.1 |
| 20260831040516 | 69 | 151 | 0.9 | 4.3 | 0.00 | 0.00 | 0.00 | 96 | 1013.0 |
| 20260831040040 | 69 | 150 | 2.6 | 6.1 | 0.00 | 0.00 | 0.00 | 96 | 1013.1 |
| 20260831035521 | 69 | 130 | 1.7 | 6.1 | 0.00 | 0.00 | 0.00 | 96 | 1013.3 |
| 20260831035020 | 69 | 130 | 1.7 | 6.1 | 0.00 | 0.00 | 0.00 | 96 | 1013.3 |
| 20260831034534 | 69 | 128 | 0.9 | 6.1 | 0.00 | 0.00 | 0.00 | 96 | 1013.3 |
| 20260831034020 | 69 | 123 | 1.7 | 8.7 | 0.00 | 0.00 | 0.00 | 96 | 1013.3 |
| 20260831033519 | 69 | 119 | 2.6 | 8.7 | 0.00 | 0.00 | 0.00 | 95 | 1013.3 |
| 20260831033039 | 69 | 117 | 1.7 | 6.1 | 0.00 | 0.00 | 0.00 | 95 | 1013.3 |
| 20260831032520 | 69 | 142 | 1.7 | 7.0 | 0.00 | 0.00 | 0.00 | 95 | 1013.2 |
| 20260831032020 | 69 | 148 | 3.5 | 7.0 | 0.00 | 0.00 | 0.00 | 95 | 1013.4 |
| 20260831031535 | 69 | 101 | 2.6 | 7.0 | 0.00 | 0.00 | 0.00 | 95 | 1013.4 |
| 20260831031021 | 70 | 134 | 2.6 | 7.0 | 0.00 | 0.00 | 0.00 | 94 | 1013.3 |
| 20260831030520 | 70 | 98 | 2.6 | 8.7 | 0.00 | 0.00 | 0.00 | 94 | 1013.4 |
| 20260831030046 | 70 | 124 | 2.6 | 8.7 | 0.00 | 0.00 | 0.00 | 94 | 1013.4 |
| 20260831025521 | 70 | 128 | 3.5 | 7.8 | 0.00 | 0.00 | 0.00 | 94 | 1013.5 |
| 20260831025020 | 70 | 146 | 2.6 | 7.8 | 0.00 | 0.00 | 0.00 | 93 | 1013.7 |
| 20260831024538 | 70 | 146 | 1.7 | 7.0 | 0.00 | 0.00 | 0.00 | 93 | 1013.7 |
| 20260831024020 | 70 | 122 | 2.6 | 7.0 | 0.00 | 0.00 | 0.00 | 93 | 1013.8 |
| 20260831023520 | 70 | 134 | 2.6 | 7.0 | 0.00 | 0.00 | 0.00 | 93 | 1013.8 |
| 20260831023040 | 70 | 144 | 2.6 | 7.0 | 0.00 | 0.00 | 0.00 | 94 | 1013.8 |
| 20260831022518 | 70 | 70 | 2.6 | 6.1 | 0.00 | 0.00 | 0.00 | 93 | 1013.7 |
| 20260831022016 | 70 | 154 | 1.7 | 7.0 | 0.00 | 0.00 | 0.00 | 94 | 1013.8 |
| 20260831021536 | 70 | 143 | 2.6 | 7.0 | 0.00 | 0.00 | 0.00 | 94 | 1013.8 |
| 20260831021020 | 70 | 155 | 1.7 | 6.1 | 0.00 | 0.00 | 0.00 | 94 | 1013.8 |
| 20260831020520 | 70 | 0 | 0.9 | 2.6 | 0.00 | 0.00 | 0.00 | 94 | 1013.8 |
| 20260831020034 | 70 | 0 | 0.0 | 5.2 | 0.00 | 0.00 | 0.00 | 94 | 1013.8 |
| 20260831015519 | 70 | 0 | 0.0 | 5.2 | 0.00 | 0.00 | 0.00 | 94 | 1013.7 |
| 20260831015021 | 70 | 0 | 0.9 | 6.1 | 0.00 | 0.00 | 0.00 | 95 | 1013.7 |
| 20260831014536 | 70 | 166 | 1.7 | 6.1 | 0.00 | 0.00 | 0.00 | 95 | 1013.7 |
| 20260831014021 | 70 | 143 | 1.7 | 4.3 | 0.00 | 0.00 | 0.00 | 95 | 1013.6 |
| 20260831013521 | 70 | 136 | 1.7 | 4.3 | 0.00 | 0.00 | 0.00 | 95 | 1013.5 |
| 20260831013040 | 69 | 163 | 1.7 | 4.3 | 0.00 | 0.00 | 0.00 | 96 | 1013.5 |
| 20260831012517 | 69 | 155 | 0.0 | 3.5 | 0.00 | 0.00 | 0.00 | 96 | 1013.4 |
| 20260831012017 | 69 | 165 | 0.0 | 3.5 | 0.00 | 0.00 | 0.00 | 95 | 1013.1 |
| 20260831011539 | 69 | 0 | 0.0 | 1.7 | 0.00 | 0.00 | 0.00 | 95 | 1013.0 |
| 20260831011023 | 69 | 0 | 0.0 | 0.9 | 0.00 | 0.00 | 0.00 | 95 | 1013.1 |
| 20260831010521 | 69 | 0 | 0.0 | 0.9 | 0.00 | 0.00 | 0.00 | 95 | 1013.1 |
| 20260831010036 | 69 | 0 | 0.0 | 0.9 | 0.00 | 0.00 | 0.00 | 95 | 1013.2 |
| 20260831005520 | 69 | 0 | 0.0 | 0.9 | 0.00 | 0.00 | 0.00 | 95 | 1013.1 |
| 20260831005021 | 69 | 0 | 0.0 | 0.9 | 0.00 | 0.00 | 0.00 | 94 | 1013.1 |
| 20260831004536 | 69 | 0 | 0.0 | 0.9 | 0.00 | 0.00 | 0.00 | 94 | 1013.3 |
| 20260831004020 | 69 | 0 | 0.0 | 0.9 | 0.00 | 0.00 | 0.00 | 94 | 1013.3 |
| 20260831003518 | 69 | 0 | 0.0 | 0.0 | 0.00 | 0.00 | 0.00 | 93 | 1013.5 |
| 20260831003041 | 69 | 0 | 0.0 | 0.0 | 0.00 | 0.00 | 0.00 | 93 | 1013.6 |
| 20260831002518 | 69 | 0 | 0.0 | 0.0 | 0.00 | 0.00 | 0.00 | 93 | 1013.6 |
| 20260831002018 | 69 | 0 | 0.0 | 0.0 | 0.00 | 0.00 | 0.00 | 93 | 1013.7 |
| 20260831001534 | 69 | 0 | 0.0 | 0.0 | 0.00 | 0.00 | 0.00 | 93 | 1013.7 |
| 20260831001020 | 69 | 0 | 0.0 | 0.0 | 0.00 | 0.00 | 0.00 | 93 | 1013.7 |
| 20260831000521 | 69 | 0 | 0.0 | 0.9 | 0.00 | 0.00 | 0.00 | 92 | 1013.8 |
| 20260831000037 | 69 | 0 | 0.0 | 0.9 | 0.00 | 0.00 | 0.00 | 93 | 1013.8 |
| 20260830235522 | 69 | 0 | 0.0 | 0.9 | 0.00 | 0.00 | 0.00 | 92 | 1013.8 |
| 20260830235023 | 69 | 0 | 0.0 | 0.0 | 0.00 | 0.00 | 0.00 | 92 | 1013.8 |
| 20260830234543 | 69 | 0 | 0.0 | 1.7 | 0.00 | 0.00 | 0.00 | 92 | 1013.9 |
| 20260830234019 | 69 | 0 | 0.0 | 1.7 | 0.00 | 0.00 | 0.00 | 92 | 1013.9 |
| 20260830233518 | 69 | 0 | 0.0 | 0.0 | 0.00 | 0.00 | 0.00 | 92 | 1013.6 |
| 20260830233035 | 69 | 0 | 0.0 | 1.7 | 0.00 | 0.00 | 0.00 | 92 | 1013.4 |
| 20260830232518 | 69 | 0 | 0.0 | 1.7 | 0.00 | 0.00 | 0.00 | 92 | 1013.3 |
| 20260830232018 | 69 | 0 | 0.0 | 1.7 | 0.00 | 0.00 | 0.00 | 92 | 1013.5 |
| 20260830231541 | 69 | 0 | 0.0 | 1.7 | 0.00 | 0.00 | 0.00 | 92 | 1013.5 |
| 20260830231025 | 69 | 0 | 0.0 | 2.6 | 0.00 | 0.00 | 0.00 | 91 | 1013.6 |
| 20260830230522 | 69 | 0 | 0.0 | 2.6 | 0.00 | 0.00 | 0.00 | 91 | 1013.8 |
| 20260830230043 | 69 | 0 | 0.0 | 2.6 | 0.00 | 0.00 | 0.00 | 91 | 1013.9 |
| 20260830225521 | 69 | 0 | 0.0 | 3.5 | 0.00 | 0.00 | 0.00 | 91 | 1013.8 |
| 20260830225019 | 69 | 340 | 0.0 | 3.5 | 0.00 | 0.00 | 0.00 | 90 | 1013.9 |
| 20260830224542 | 69 | 0 | 0.0 | 3.5 | 0.00 | 0.00 | 0.00 | 90 | 1013.7 |
| 20260830224019 | 70 | 355 | 0.0 | 1.7 | 0.00 | 0.00 | 0.00 | 90 | 1013.7 |
| 20260830223515 | 70 | 0 | 0.0 | 1.7 | 0.00 | 0.00 | 0.00 | 90 | 1013.6 |
| 20260830223035 | 70 | 0 | 0.0 | 3.5 | 0.00 | 0.00 | 0.00 | 89 | 1013.5 |
| 20260830222519 | 71 | 0 | 0.0 | 3.5 | 0.00 | 0.00 | 0.00 | 88 | 1013.4 |
| 20260830222020 | 71 | 0 | 0.0 | 0.9 | 0.00 | 0.00 | 0.00 | 88 | 1013.2 |
| 20260830221540 | 72 | 0 | 0.0 | 1.7 | 0.00 | 0.00 | 0.00 | 88 | 1013.0 |
| 20260830221021 | 72 | 0 | 0.0 | 2.6 | 0.00 | 0.00 | 0.00 | 87 | 1013.0 |
| 20260830220522 | 73 | 0 | 0.0 | 2.6 | 0.00 | 0.00 | 0.00 | 86 | 1013.2 |
| 20260830220039 | 74 | 344 | 0.0 | 2.6 | 0.00 | 0.00 | 0.00 | 85 | 1013.6 |
| 20260830215517 | 74 | 0 | 0.0 | 0.0 | 0.00 | 0.00 | 0.00 | 85 | 1013.6 |
| 20260830215020 | 74 | 0 | 0.0 | 0.0 | 0.00 | 0.00 | 0.00 | 85 | 1013.7 |
| 20260830214536 | 74 | 0 | 0.0 | 0.0 | 0.00 | 0.00 | 0.00 | 85 | 1013.7 |
| 20260830214020 | 74 | 0 | 0.0 | 0.0 | 0.00 | 0.00 | 0.00 | 86 | 1013.6 |
| 20260830213520 | 73 | 0 | 0.0 | 0.0 | 0.00 | 0.00 | 0.00 | 86 | 1013.7 |
| 20260830213037 | 73 | 0 | 0.0 | 0.0 | 0.00 | 0.00 | 0.00 | 86 | 1013.7 |
| 20260830212519 | 73 | 0 | 0.0 | 2.6 | 0.00 | 0.00 | 0.00 | 86 | 1013.5 |
| 20260830212018 | 73 | 0 | 0.0 | 2.6 | 0.00 | 0.00 | 0.00 | 86 | 1013.6 |
| 20260830211534 | 73 | 0 | 0.0 | 1.7 | 0.00 | 0.00 | 0.00 | 85 | 1013.8 |
| 20260830211023 | 73 | 0 | 0.0 | 4.3 | 0.00 | 0.00 | 0.00 | 86 | 1013.9 |
| 20260830210520 | 73 | 140 | 1.7 | 4.3 | 0.00 | 0.00 | 0.00 | 84 | 1013.8 |
| 20260830210037 | 73 | 151 | 1.7 | 4.3 | 0.00 | 0.00 | 0.00 | 85 | 1013.7 |
| 20260830205523 | 73 | 137 | 2.6 | 5.2 | 0.00 | 0.00 | 0.00 | 84 | 1013.7 |
| 20260830205021 | 74 | 159 | 2.6 | 5.2 | 0.00 | 0.00 | 0.00 | 85 | 1013.7 |
| 20260830204534 | 74 | 0 | 0.0 | 3.5 | 0.00 | 0.00 | 0.00 | 86 | 1013.8 |
| 20260830204020 | 74 | 0 | 0.0 | 3.5 | 0.00 | 0.00 | 0.00 | 86 | 1013.9 |
| 20260830203518 | 74 | 159 | 0.0 | 3.5 | 0.00 | 0.00 | 0.00 | 86 | 1013.8 |
| 20260830203039 | 74 | 0 | 0.0 | 0.9 | 0.00 | 0.00 | 0.00 | 86 | 1013.8 |
| 20260830202517 | 74 | 0 | 0.0 | 0.9 | 0.00 | 0.00 | 0.00 | 86 | 1013.7 |
| 20260830202020 | 74 | 0 | 0.0 | 0.0 | 0.00 | 0.00 | 0.00 | 87 | 1013.7 |
| 20260830201538 | 73 | 0 | 0.0 | 1.7 | 0.00 | 0.00 | 0.00 | 87 | 1013.7 |
| 20260830201020 | 73 | 0 | 0.0 | 2.6 | 0.00 | 0.00 | 0.00 | 87 | 1013.8 |
| 20260830200521 | 73 | 159 | 0.0 | 3.5 | 0.00 | 0.00 | 0.00 | 87 | 1013.9 |
| 20260830200034 | 73 | 159 | 0.0 | 4.3 | 0.00 | 0.00 | 0.00 | 87 | 1013.9 |
| 20260830195521 | 73 | 0 | 0.0 | 4.3 | 0.00 | 0.00 | 0.00 | 87 | 1013.9 |
| 20260830195021 | 73 | 256 | 0.0 | 4.3 | 0.00 | 0.00 | 0.00 | 87 | 1014.0 |
| 20260830194541 | 73 | 157 | 0.0 | 6.1 | 0.00 | 0.00 | 0.00 | 87 | 1013.9 |
| 20260830194025 | 72 | 0 | 0.0 | 6.1 | 0.00 | 0.00 | 0.00 | 87 | 1013.9 |
| 20260830193517 | 72 | 155 | 0.0 | 4.3 | 0.00 | 0.00 | 0.00 | 89 | 1013.9 |
| 20260830193042 | 72 | 0 | 0.0 | 4.3 | 0.00 | 0.00 | 0.00 | 89 | 1014.1 |
| 20260830192517 | 71 | 168 | 0.9 | 4.3 | 0.00 | 0.00 | 0.00 | 89 | 1014.1 |
| 20260830192015 | 71 | 163 | 1.7 | 8.7 | 0.00 | 0.00 | 0.00 | 89 | 1014.0 |
| 20260830191537 | 71 | 156 | 3.5 | 8.7 | 0.00 | 0.00 | 0.00 | 88 | 1013.9 |
| 20260830191021 | 71 | 176 | 0.9 | 4.3 | 0.00 | 0.00 | 0.00 | 89 | 1014.0 |
| 20260830190521 | 71 | 0 | 0.0 | 4.3 | 0.00 | 0.00 | 0.00 | 89 | 1014.0 |
| 20260830190037 | 71 | 146 | 0.0 | 3.5 | 0.00 | 0.00 | 0.00 | 88 | 1014.1 |
| 20260830185522 | 71 | 0 | 0.0 | 0.9 | 0.00 | 0.00 | 0.00 | 88 | 1014.0 |
| 20260830185021 | 71 | 0 | 0.0 | 4.3 | 0.00 | 0.00 | 0.00 | 89 | 1013.9 |
| 20260830184537 | 71 | 0 | 0.0 | 4.3 | 0.00 | 0.00 | 0.00 | 89 | 1013.9 |
| 20260830184018 | 71 | 0 | 0.0 | 3.5 | 0.00 | 0.00 | 0.00 | 89 | 1013.9 |
| 20260830183521 | 71 | 0 | 0.0 | 3.5 | 0.00 | 0.00 | 0.00 | 89 | 1014.1 |
| 20260830183034 | 71 | 161 | 0.0 | 3.5 | 0.00 | 0.00 | 0.00 | 89 | 1014.1 |
| 20260830182524 | 71 | 0 | 0.0 | 2.6 | 0.00 | 0.00 | 0.00 | 89 | 1014.2 |
| 20260830182024 | 71 | 0 | 0.0 | 2.6 | 0.00 | 0.00 | 0.00 | 89 | 1014.3 |
| 20260830181537 | 71 | 0 | 0.0 | 2.6 | 0.00 | 0.00 | 0.00 | 90 | 1014.3 |
| 20260830181022 | 71 | 0 | 0.0 | 2.6 | 0.00 | 0.00 | 0.00 | 89 | 1014.2 |
| 20260830180521 | 70 | 0 | 0.0 | 1.7 | 0.00 | 0.00 | 0.00 | 90 | 1014.1 |
| 20260830180053 | 70 | 0 | 0.0 | 1.7 | 0.00 | 0.00 | 0.00 | 90 | 1014.3 |
| 20260830175518 | 70 | 0 | 0.0 | 1.7 | 0.00 | 0.00 | 0.00 | 90 | 1014.4 |
| 20260830175017 | 70 | 0 | 0.0 | 1.7 | 0.00 | 0.00 | 0.00 | 90 | 1014.3 |
| 20260830174538 | 70 | 0 | 0.0 | 4.3 | 0.00 | 0.00 | 0.00 | 90 | 1014.2 |
| 20260830174020 | 70 | 0 | 0.0 | 4.3 | 0.00 | 0.00 | 0.00 | 90 | 1014.2 |
| 20260830173522 | 70 | 0 | 0.0 | 1.7 | 0.00 | 0.00 | 0.00 | 91 | 1014.3 |
| 20260830173052 | 69 | 0 | 0.0 | 1.7 | 0.00 | 0.00 | 0.00 | 91 | 1014.3 |